This is the latest recevied weather packets stored in our database for station/object M0XDC. If no packets are shown the sender has not sent any weather packets the latest 10 day(s).
| Time | Temp. | Humidity | Pressure | Rain* | Wind** | Luminosity | Snow |
|---|---|---|---|---|---|---|---|
| 1788132704 | 60° F | 83% | 753.1 mmHg | 0 in | - | - | - |
| 1788130905 | 61° F | 83% | 753.4 mmHg | 0 in | - | - | - |
| 1788129105 | 61° F | 82% | 753.3 mmHg | 0 in | - | - | - |
| 1788127305 | 62° F | 86% | 753.4 mmHg | 0 in | - | - | - |
| 1788125505 | 63° F | 83% | 753.3 mmHg | 0 in | - | - | - |
| 1788123788 | 64° F | 76% | 753.5 mmHg | 0 in | - | - | - |
| 1788123705 | 64° F | 76% | 753.5 mmHg | 0 in | - | - | - |
| 1788121905 | 64° F | 75% | 753.7 mmHg | 0 in | - | - | - |
| 1788120105 | 64° F | 73% | 754 mmHg | 0 in | - | - | - |
| 1788118305 | 65° F | 71% | 753.9 mmHg | 0 in | - | - | - |
| 1788116505 | 66° F | 68% | 754 mmHg | 0 in | - | - | - |
| 1788114705 | 67° F | 67% | 753.9 mmHg | 0 in | - | - | - |
| 1788112905 | 68° F | 65% | 754 mmHg | 0 in | - | - | - |
| 1788111156 | 69° F | 61% | 754.1 mmHg | 0 in | - | - | - |
| 1788111105 | 69° F | 61% | 754.1 mmHg | 0 in | - | - | - |
| 1788109305 | 70° F | 58% | 754.2 mmHg | 0 in | - | - | - |
| 1788107505 | 71° F | 58% | 754.4 mmHg | 0 in | - | - | - |
| 1788105705 | 71° F | 58% | 754.4 mmHg | 0 in | - | - | - |
| 1788103905 | 71° F | 61% | 754.8 mmHg | 0 in | - | - | - |
| 1788102105 | 72° F | 57% | 754.6 mmHg | 0 in | - | - | - |
| 1788100305 | 72° F | 60% | 754.8 mmHg | 0 in | - | - | - |
| 1788098505 | 68° F | 68% | 755.1 mmHg | 0 in | - | - | - |
| 1788096705 | 72° F | 57% | 755.2 mmHg | 0 in | - | - | - |
| 1788094905 | 73° F | 55% | 755.2 mmHg | 0 in | - | - | - |
| 1788093105 | 74° F | 54% | 755.4 mmHg | 0 in | - | - | - |
* Rain latest hour (hover to see other rain measurements)
** Current wind speed in m/s (hover to see current wind gust speed)